Flag for Indonesia Weather past 2 weeks in Makassar, South Sulawesi, Indonesia

Now
77 °F

Passing clouds.


Feels Like: 78 °F
Forecast: 75 / 86 °F
Wind: 3 mph from East

Location: Ujung Pandang / Hasanuddin

Current Time: Jul 3, 2015 at 8:21:49 PM

Latest Report: Jul 3, 2015 at 8:00 PM


Visibility: 5 mi

Pressure: 29.86 "Hg

Humidity: 94%

Dew point: 75 °F

Location of MakassarLocation

Historic Weather in Makassar — Graph

°F

Makassar temperature yesterday

Maximum temperature yesterday: 93 °F (at 1:00 PM)
Minimum temperature yesterday: 72 °F (at 3:30 AM)
Average temperature yesterday: 81 °F

Past Weeks' High & Low Weather Summary

 TemperatureHumidityPressure
High93 °F (Jun 27, 2:00 PM)100% (Jun 18, 9:00 PM)30.01 "Hg (Jun 18, 9:00 PM)
Low70 °F (Jun 29, 5:00 AM)41% (Jul 3, 12:30 PM)29.77 "Hg (Jun 20, 3:30 PM)
Average81 °F83%29.89 "Hg
* Reported Jun 18 7:30 PM — Jul 3 7:00 PM, Makassar, Weather by CustomWeather, © 2015

Note: Actual official high and low records may vary slightly from our data, if they occured in-between our weather recording intervals... More about our weather records

Advertising

Makassar weather history for previous 24 hours

 ConditionsComfort  
Time TempWeatherWind HumidityBarometerVisibility
7:00 PM
Fri, Jul 3
79 °FPassing clouds.2 mph65%29.83 "Hg5 mi
6:30 PM82 °FPassing clouds.2 mph55%29.83 "Hg5 mi
6:00 PM82 °FPassing clouds.No wind55%29.83 "HgN/A
5:30 PM86 °FPassing clouds.5 mph55%29.80 "HgN/A
5:00 PM86 °FPassing clouds.5 mph55%29.80 "HgN/A
4:30 PM88 °FPassing clouds.8 mph49%29.80 "HgN/A
4:00 PM88 °FPassing clouds.9 mph49%29.80 "HgN/A
3:30 PM88 °FPassing clouds.9 mph52%29.80 "HgN/A
3:00 PM88 °FPassing clouds.12 mph55%29.80 "HgN/A
2:30 PM88 °FPassing clouds.10 mph59%29.80 "HgN/A
2:00 PM88 °FPassing clouds.12 mph59%29.80 "HgN/A
1:30 PM91 °FPassing clouds.5 mph46%29.83 "HgN/A
1:00 PM91 °FPassing clouds.7 mph44%29.83 "HgN/A
12:30 PM91 °FPassing clouds.3 mph41%29.86 "HgN/A
12:00 PM90 °FPassing clouds.5 mph46%29.86 "HgN/A
11:30 AM90 °FPassing clouds.3 mph49%29.86 "HgN/A
11:00 AM88 °FPassing clouds.3 mph52%29.89 "HgN/A
10:30 AM86 °FPassing clouds.3 mph52%29.89 "HgN/A
10:00 AM86 °FPassing clouds.2 mph49%29.89 "HgN/A
9:30 AM84 °FPassing clouds.3 mph62%29.92 "HgN/A
9:00 AM82 °FPassing clouds.5 mph62%29.92 "HgN/A
8:30 AM81 °FPassing clouds.5 mph74%29.92 "HgN/A
8:00 AM75 °FPassing clouds.3 mph94%29.92 "HgN/A
7:30 AM73 °FPassing clouds.2 mph100%29.92 "HgN/A
7:00 AM72 °FPassing clouds.2 mph100%29.92 "HgN/A
6:30 AM70 °FPassing clouds.No wind100%29.89 "Hg6 mi
6:00 AM70 °FPassing clouds.2 mph100%29.89 "Hg5 mi
5:00 AM70 °FPassing clouds.1 mph100%29.89 "Hg5 mi
4:30 AM72 °FPassing clouds.3 mph100%29.89 "Hg5 mi
4:00 AM72 °FPassing clouds.2 mph100%29.89 "Hg5 mi
3:30 AM73 °FPassing clouds.5 mph94%29.89 "Hg5 mi
3:00 AM72 °FPassing clouds.2 mph100%29.89 "Hg5 mi
2:30 AM72 °FPassing clouds.2 mph100%29.89 "Hg5 mi
2:00 AM72 °FPassing clouds.1 mph100%29.89 "Hg5 mi
1:30 AM73 °FPassing clouds.No wind100%29.92 "Hg5 mi
1:00 AM73 °FPassing clouds.No wind100%29.92 "Hg5 mi
12:30 AM73 °FPassing clouds.No wind100%29.92 "Hg5 mi
12:00 AM75 °FPassing clouds.2 mph100%29.92 "Hg5 mi
11:30 PM
Thu, Jul 2
75 °FPassing clouds.3 mph100%29.92 "Hg5 mi
11:00 PM75 °FPassing clouds.5 mph100%29.92 "Hg5 mi
10:30 PM77 °FPassing clouds.5 mph94%29.92 "Hg5 mi
10:00 PM77 °FPassing clouds.6 mph94%29.92 "Hg5 mi
9:30 PM75 °FPassing clouds.3 mph100%29.92 "Hg5 mi
9:00 PM77 °FPassing clouds.3 mph100%29.92 "Hg5 mi
8:30 PM77 °FPassing clouds.5 mph100%29.92 "Hg5 mi
8:00 PM77 °FPassing clouds.5 mph100%29.92 "Hg5 mi
Weather by CustomWeather, © 2015

See weather overviewHow to use our weather pages